User: anonymous   Login
Location: Rio Negrinho
(26.2394°S, 49.4999°W)
Time: 14:04:26
(UTC+00:00)
Language:

N. Korean satellite - Orbit

View from above orbital plane
View from above orbital plane
View from above satellite
View from above satellite

Ground track
Ground track

The orbit data is extracted from the following two-line orbital elements,

1 39026U 12072A   21259.69275561  .00003502  00000-0  11810-3 0  9996
2 39026  97.2508 250.3937 0036871  60.6839 299.8078 15.30724423486988
Epoch (UTC): 16 September 2021 16:37:34
Eccentricity: 0.0036871
inclination: 97.2508°
perigee height: 448 km
apogee height: 499 km
right ascension of ascending node: 250.3937°
argument of perigee: 60.6839°
revolutions per day: 15.30724423
mean anomaly at epoch: 299.8078°
orbit number at epoch: 48698

The dashed part of the orbit path shows where the satellite is in the earth's shadow,  

DLR